Terminal Aerodrome Forecast
Issued by NWS

Home | Current Version | Previous Version | Text Only | Print | Product List | Glossary On
Versions: 1 2 3 4 5 6 7 8 9 10 11 12 13 14 15 16 17 18
000
FTUS45 KVEF 272320
TAFDAG
TAF
KDAG 272320Z 2800/2824 26014KT P6SM SCT080 SCT200
     FM280800 26018G24KT P6SM FEW060
     FM281500 28012KT P6SM FEW060
     FM282000 VRB06KT P6SM FEW060=

USA.gov is the U.S. government's official web portal to all federal, state and local government web resources and services.